Location: Alessandria
(44.9000°N, 8.6170°E)
Time: 16:47:45
(UTC+02:00)

ISS - Pass Details

Date: 13 May 2021
Orbit: 417 x 422 km, 51.6° (Epoch: 18 June)

Event Time Altitude Azimuth Distance (km) Brightness Sun altitude
Exits shadow 02:03:46 25° 342° (NNW) 898 -1.6 -26.0°
Maximum altitude 02:04:11 26° 355° (N) 881 -1.5 -26.0°
Drops below altitude 10° 02:07:05 10° 54° (NE) 1,509 -0.4 -25.9°
Sets 02:09:25 0° 68° (ENE) 2,375 0.5 -25.8°
